Weather History for Kansas City International, MO

Change the Weather History Date:

Friday, January 18, 2013

  Actual Average Record
Temperature  
Mean Temperature 43 °F 29 °F  
Max Temperature 57 °F 38 °F 70 °F (1951)
Min Temperature 29 °F 19 °F -12 °F (1940)
Degree Days  
Heating Degree Days 22 36  
Month to date heating degree days 577 648  
Since 1 July heating degree days 2415 2690  
Cooling Degree Days 0 0  
Month to date cooling degree days 0 0  
Year to date cooling degree days 0 0  
Moisture  
Dew Point 27 °F    
Average Humidity 56    
Maximum Humidity 78    
Minimum Humidity 33    
Precipitation  
Precipitation 0.00 in 0.04 in 0.96 in (1907)
Month to date precipitation 0.25 0.57  
Year to date precipitation 0.25 0.57  
Snow  
Snow 0.00 in 0.10 in 11.80 in (1962)
Month to date snowfall T 2.5  
Since 1 July snowfall 3.7 8.7  
Snow Depth 0.00 in    
Sea Level Pressure  
Sea Level Pressure 30.18 in    
Wind  
Wind Speed 19 mph (SSW)    
Max Wind Speed 35 mph    
Max Gust Speed 43 mph    
Visibility 10 miles    
Events      
T = Trace of Precipitation, MM = Missing Value Source: NWS Daily Summary

Daily Weather History Graph

Daily Weather History Graph

Search for Another Location

Airport:

Trip Planner

Search our weather history database for the weather conditions in past years. The results will help you decide how hot, cold, wet, or windy it might be!

Date:

Astronomy

Jan. 18, 2013 Rise Set
Actual Time 7:35 AM CST 5:23 PM CST
Civil Twilight 7:06 AM CST 5:52 PM CST
Nautical Twilight 6:33 AM CST 6:25 PM CST
Astronomical Twilight 6:01 AM CST 6:57 PM CST
Moon 11:17 AM CST (1/18) 12:11 AM CST (1/18)
Length of Visible Light 10h 46m
Length of Day
9h 48m
Waxing Crescent, 47% of the Moon is Illuminated
Jan 18
Waxing Crescent
Jan 18
First Quarter
Jan 26
Full
Feb 3
Last Quarter
Feb 10
New

Hourly Weather History & Observations

Time (CST) Temp. Windchill Dew Point Humidity Pressure Visibility Wind Dir Wind Speed Gust Speed Precip Events Conditions
12:53 AM 28.9 °F 19.8 °F 23.0 °F 78% 30.40 in 10.0 mi South 10.4 mph - N/A   Clear
1:53 AM 34.0 °F 25.5 °F 26.1 °F 73% 30.40 in 10.0 mi South 11.5 mph - N/A   Clear
2:53 AM 34.0 °F 24.6 °F 26.1 °F 73% 30.38 in 10.0 mi South 13.8 mph - N/A   Clear
3:53 AM 34.0 °F 25.0 °F 26.1 °F 73% 30.36 in 10.0 mi South 12.7 mph - N/A   Clear
4:53 AM 35.1 °F 24.8 °F 26.1 °F 70% 30.34 in 10.0 mi SSW 17.3 mph 23.0 mph N/A   Clear
5:53 AM 35.1 °F 24.8 °F 26.1 °F 70% 30.32 in 10.0 mi SSW 17.3 mph 26.5 mph N/A   Clear
6:53 AM 34.0 °F 24.6 °F 26.1 °F 73% 30.32 in 10.0 mi SSW 13.8 mph - N/A   Clear
7:53 AM 36.0 °F 25.6 °F 26.1 °F 67% 30.29 in 10.0 mi SSW 18.4 mph - N/A   Partly Cloudy
8:53 AM 39.0 °F 27.8 °F 26.1 °F 60% 30.28 in 10.0 mi SSW 26.5 mph - N/A   Partly Cloudy
9:53 AM 43.0 °F 33.5 °F 27.0 °F 53% 30.25 in 10.0 mi SSW 24.2 mph 35.7 mph N/A   Partly Cloudy
10:53 AM 48.9 °F - 28.0 °F 44% 30.22 in 10.0 mi SW 20.7 mph 35.7 mph N/A   Partly Cloudy
11:53 AM 51.1 °F - 27.0 °F 39% 30.16 in 10.0 mi SW 28.8 mph 41.4 mph N/A   Partly Cloudy
12:53 PM 54.0 °F - 28.0 °F 37% 30.12 in 10.0 mi SSW 20.7 mph 35.7 mph N/A   Clear
1:53 PM 55.0 °F - 28.9 °F 37% 30.08 in 10.0 mi SSW 26.5 mph 33.4 mph N/A   Clear
2:53 PM 57.0 °F - 28.0 °F 33% 30.04 in 10.0 mi SW 27.6 mph 36.8 mph N/A   Clear
3:53 PM 55.9 °F - 28.0 °F 34% 30.04 in 10.0 mi SSW 21.9 mph 34.5 mph N/A   Partly Cloudy
4:53 PM 55.0 °F - 28.0 °F 35% 30.05 in 10.0 mi SW 16.1 mph 26.5 mph N/A   Scattered Clouds
5:53 PM 51.1 °F - 28.0 °F 41% 30.06 in 10.0 mi SSW 15.0 mph - N/A   Scattered Clouds
6:53 PM 51.1 °F - 28.0 °F 41% 30.06 in 10.0 mi SSW 19.6 mph - N/A   Scattered Clouds
7:53 PM 48.0 °F - 28.0 °F 46% 30.07 in 10.0 mi SSW 17.3 mph - N/A   Scattered Clouds
8:53 PM 46.9 °F - 28.9 °F 50% 30.05 in 10.0 mi SSW 19.6 mph 26.5 mph N/A   Scattered Clouds
9:53 PM 46.0 °F 38.5 °F 28.9 °F 51% 30.04 in 10.0 mi SSW 19.6 mph 26.5 mph N/A   Scattered Clouds
10:53 PM 46.0 °F 38.5 °F 28.0 °F 50% 30.02 in 10.0 mi SW 19.6 mph 26.5 mph N/A   Scattered Clouds
11:53 PM 46.0 °F 37.8 °F 28.9 °F 51% 30.00 in 10.0 mi SSW 23.0 mph 31.1 mph N/A   Clear